Wetterdaten: aktuell Freitag, 17.01.2020 13:40
Datum Zeit Temp 2m Temp 2m ob Temp 10cm Feuchte 2 m Regen Wind mittel Richtung Richtung Taupunkt Windben
17.01.2020 13:40 9,2 C 10,7 C 9,5 C 74 % 0,0 l/m 5,3 km/h SW 225 4,8 C 8,7 km/h
17.01.2020 13:35 9,3 C 10,7 C 9,5 C 74 % 0,0 l/m 4,7 km/h S 180 4,9 C 4,5 km/h
17.01.2020 13:30 9,3 C 10,8 C 9,6 C 74 % 0,0 l/m 4,3 km/h S 180 4,9 C 4,5 km/h
17.01.2020 13:25 9,4 C 10,9 C 9,6 C 74 % 0,0 l/m 3,9 km/h SW 225 5,0 C 4,7 km/h
17.01.2020 13:20 9,5 C 11,0 C 9,7 C 74 % 0,0 l/m 3,5 km/h N-NW 337 5,1 C 5,3 km/h
17.01.2020 13:15 9,4 C 11,1 C 9,7 C 74 % 0,0 l/m 4,7 km/h N-NW 337 5,0 C 2,9 km/h
17.01.2020 13:10 9,3 C 11,1 C 9,6 C 75 % 0,0 l/m 5,5 km/h SO 135 5,1 C 4,5 km/h
17.01.2020 13:05 9,3 C 10,9 C 9,6 C 76 % 0,0 l/m 4,2 km/h W-SW 247 5,3 C 7,6 km/h
17.01.2020 13:00 9,2 C 10,8 C 9,6 C 76 % 0,0 l/m 3,1 km/h SW 225 5,2 C 3,2 km/h
17.01.2020 12:55 9,2 C 10,9 C 9,6 C 75 % 0,0 l/m 5,1 km/h W-SW 247 5,0 C 3,7 km/h
17.01.2020 12:51 9,3 C 11,2 C 9,8 C 75 % 0,0 l/m 6,9 km/h O 90 5,1 C 3,9 km/h
17.01.2020 12:48 9,3 C 11,2 C 9,8 C 75 % 0,0 l/m 6,9 km/h O 90 5,1 C 3,9 km/h
17.01.2020 12:45 9,3 C 11,7 C 9,9 C 75 % 0,0 l/m 5,3 km/h W-SW 247 5,1 C 10,3 km/h
17.01.2020 12:40 9,3 C 12,1 C 10,0 C 75 % 0,0 l/m 3,7 km/h W-SW 247 5,1 C 9,2 km/h
17.01.2020 12:35 9,3 C 12,5 C 10,0 C 76 % 0,0 l/m 2,1 km/h S 180 5,3 C 0,0 km/h
17.01.2020 12:30 9,3 C 12,7 C 10,0 C 76 % 0,0 l/m 1,8 km/h W 270 5,3 C 4,2 km/h
17.01.2020 12:25 9,2 C 12,8 C 10,0 C 76 % 0,0 l/m 1,1 km/h W-SW 247 5,2 C 5,6 km/h
17.01.2020 12:20 9,2 C 12,9 C 9,9 C 76 % 0,0 l/m 1,1 km/h O-SO 112 5,2 C 0,0 km/h
17.01.2020 12:15 9,2 C 12,8 C 9,8 C 77 % 0,0 l/m 1,6 km/h O-SO 112 5,4 C 1,8 km/h
17.01.2020 12:10 9,0 C 12,5 C 9,5 C 78 % 0,0 l/m 4,0 km/h S 180 5,4 C 3,9 km/h
17.01.2020 12:05 9,0 C 12,5 C 9,5 C 78 % 0,0 l/m 4,0 km/h S 180 5,4 C 3,9 km/h
17.01.2020 12:00 8,9 C 12,4 C 9,5 C 77 % 0,0 l/m 4,2 km/h SW 225 5,1 C 6,4 km/h
17.01.2020 11:55 8,9 C 12,7 C 9,4 C 78 % 0,0 l/m 4,8 km/h S-SW 202 5,3 C 6,4 km/h
17.01.2020 11:50 8,8 C 13,0 C 9,4 C 79 % 0,0 l/m 4,7 km/h W-SW 247 5,4 C 6,3 km/h
17.01.2020 11:45 8,5 C 12,8 C 9,2 C 81 % 0,0 l/m 4,3 km/h NW 315 5,4 C 5,3 km/h
17.01.2020 11:40 8,2 C 12,6 C 9,0 C 82 % 0,0 l/m 4,2 km/h W-SW 247 5,3 C 8,0 km/h
_ Min-Zeit 10:05 10:00 10:00 14:10 - 19:35 - - 09:50 14:05
Minimum _ 3,2 C 2,6 C 2,8 C 72 % - 0,0 km/h - - 0,7 C 0,0 km/h
_ Max-Zeit 15:00 11:50 14:00 10:40 14:00 01:45 - - 15:00 01:40
Maximum _ 10,8 C 13,0 C 11,1 C 88 % 0,0 l/m 8,2 km/h
S
- - 6,4 C 21,2 km/h
O-NO
Durchschnitt _ 7,1 C 7,4 C 7,0 C 80 % #0,0 l/m 1,9 km/h O-SO - 3,8 C 3,0 km/h